Showing default

HULIANWANG DIGUI-11, 62971

Orbit data source: Space-Track

HULIANWANG DIGUI-11, 62971 is a payload satellite owned by Zhongguo Xingwang (CN) in LEO that was launched on Tue, 11 Feb 2025 UTC via a CHANG ZHENG 8A launch vehicle from the Wenchang Satellite Launch Center (WSC). Payload-class satellites include a variety of spacecraft equipped with specific instruments for various scientific and technological missions. These include communications satellites like Starlink; space stations such as the ISS; scientific satellites like the Hubble; Earth observation satellites from companies like Planet Labs, Umbra, and HawkEye 360; GPS; miniature CubeSats for education and research; and military/defense satellites.

Loading next visibility...
Identifier
62971, 2025-030A
Orbit
LEO
Last TLE update
19 hours ago
Origin
Manufacturer
CAST
Mission
Operational Civil Communications
Bus & Motor
HWHD, Unknown motor
Mass
~800 kg wet, ~800 kg dry
Launch date (UTC)
2025-02-11 (3 months ago)
Launch vehicle
CHANG ZHENG 8A
Launch site
Wenchang Satellite Launch Center (WSC)
Object type
Payload
Rocket body
Debris
Shape & HBR
Box + 2 Pan, 10 m
Radar Cross Section
5.935 m², Large (>1 m²)

Expand to show TLE details & history

TLE from 19 hours ago
0 HULIANWANG DIGUI-11
1 62971U 25030A   25128.49585979 -.00000063  00000-0  10253-3 0  9993
2 62971  50.0008 248.8482 0001132 105.5944 254.5064 13.53776250 12009
Epoch: 2025-05-08T11:54Z
Definitive object data (Epoch: 2025-05-08T11:54:02.285Z)
Latitude
-0.00002°
Longitude
-156.22686°
Altitude
1,059.134 km
Speed
7.323 km/s
True Right ascension
16h 35m 23s
True Declination
0° 00' 00"
Sunlit
Object was in full shadow at TLE epoch
Visualization TLE readout
Latitude
-50.01267°
Longitude
116.367°
Altitude
1,076.23 km
Speed
7.314 km/s
Apparent Right ascension
06h 52m 32s
Apparent Declination
-61° 49' 17"
Sunlit
Object is in daylight
Visualization observer readout
Local Sidereal Time
15:06:43
Azimuth
217.731° SW
Elevation
-49.975°
Doppler factor
1
Orbital elements
Apogee altitude
1,059.953 km
Perigee altitude
1,058.269 km
Semi-major axis
7,437.248 km
Eccentricity
0.0001132
Inclination
50.0008°
RAAN
248.8482°
Arg. of periapsis
105.5944°
True anomaly
254.4939°
Mean anomaly
254.5064°
Eccentric anomaly
254.50015°
Mean motion
3.38396 °/min
BSTAR
0.00010253
Orbital period
106.38 mins
Loading maneuver chart data...
Loading SW <> Apogee altitude chart data...
Loading historical data...
Loading historical data...
Loading historical data...
Loading historical data...
Loading historical data...
Loading historical data...
Loading historical data...

HULIANWANG DIGUI-11 Visibility forecast

Observer location: undefined°, undefined°

Span
Click to sort rows by Start time (UTC) header in descending order
Start Az.
Max El. time (UTC)
Max El. Az.
Max El.
End time (UTC)
End Az.
10 mins2025-05-09 09:16:48.579Z179.668° S2025-05-09 09:21:48.579Z130.366° SE23.37°2025-05-09 09:26:48.579Z79.044° E
11 mins2025-05-09 11:07:48.579Z236.192° WSW2025-05-09 11:12:48.579Z294.522° NW44.953°2025-05-09 11:18:48.579Z55.527° ENE
11 mins2025-05-09 12:59:48.579Z282.509° WNW2025-05-09 13:04:48.579Z340.908° N32.892°2025-05-09 13:10:48.579Z53.097° ENE
11 mins2025-05-09 14:52:48.579Z307.875° NW2025-05-09 14:57:48.579Z6.854° NNE31.842°2025-05-09 15:03:48.579Z75.626° E
12 mins2025-05-09 16:44:48.579Z306.668° NW2025-05-09 16:50:48.579Z71.615° E43.756°2025-05-09 16:56:48.579Z117.953° SE
10 mins2025-05-09 18:36:48.579Z281.948° WNW2025-05-09 18:41:48.579Z223.428° SW27.2°2025-05-09 18:46:48.579Z172.68° S
|